Location: Davayat
(45.9471°N, 3.1105°E)
Time: 12:49:04
(UTC+00:00)

Meteor 2-12 Rocket - Visible Passes

Search period start: 20 April 2021 00:00
Search period end: 30 April 2021 00:00
Orbit: 936 x 957 km, 82.5° (Epoch: 19 April)

Date Brightness Start Highest point End Pass type
(mag) Time Alt. Az. Time Alt. Az. Time Alt. Az.
20 Apr 5.6 01:18:19 10° NNW 01:22:34 29° WNW 01:22:34 29° WNW visible
20 Apr 6.6 22:07:36 10° NE 22:09:40 12° ENE 22:11:04 11° ENE visible
20 Apr 4.7 23:49:39 10° N 23:55:06 62° NE 23:55:06 62° NE visible
21 Apr 6.0 01:35:40 10° NW 01:39:09 20° WNW 01:39:09 20° WNW visible
21 Apr 6.3 22:22:51 10° NNE 22:26:51 18° ENE 22:27:39 17° ENE visible
22 Apr 4.6 00:06:20 10° N 00:11:42 69° NNW 00:11:42 69° NNW visible
22 Apr 6.4 01:53:42 10° NW 01:55:44 13° WNW 01:55:44 13° WNW visible
22 Apr 5.8 22:38:53 10° NNE 22:43:55 26° ENE 22:44:15 26° ENE visible
23 Apr 4.9 00:23:10 10° NNW 00:28:18 51° WNW 00:28:18 51° WNW visible
23 Apr 5.3 22:55:12 10° N 23:00:52 38° ENE 23:00:52 38° ENE visible
24 Apr 5.4 00:40:08 10° NNW 00:44:54 35° WNW 00:44:54 35° WNW visible
24 Apr 4.7 23:11:42 10° N 23:17:29 57° ENE 23:17:29 57° ENE visible
25 Apr 5.9 00:57:21 10° NNW 01:01:31 24° WNW 01:01:31 24° WNW visible
25 Apr 6.4 21:45:17 10° NNE 21:48:40 15° ENE 21:50:03 14° ENE visible
25 Apr 4.4 23:28:20 10° N 23:34:06 79° NNE 23:34:06 79° NNE visible
26 Apr 6.3 01:15:01 10° NW 01:18:09 15° WNW 01:18:09 15° WNW visible
26 Apr 5.9 22:01:06 10° NNE 22:05:46 22° ENE 22:06:42 21° ENE visible
26 Apr 4.6 23:45:06 10° NNW 23:50:44 63° WNW 23:50:44 63° WNW visible
27 Apr 5.4 22:17:20 10° N 22:22:46 32° ENE 22:23:20 32° E visible
28 Apr 5.1 00:02:01 10° NNW 00:07:23 42° W 00:07:23 42° W visible
28 Apr 4.8 22:33:46 10° N 22:39:40 48° ENE 22:40:00 48° E visible
29 Apr 5.7 00:19:06 10° NNW 00:24:03 28° W 00:24:03 28° W visible
29 Apr 6.5 21:07:54 10° NNE 21:10:27 13° ENE 21:12:37 11° E visible
29 Apr 4.3 22:50:20 10° N 22:56:27 73° E 22:56:40 72° E visible
